Location: Jesenik
(50.2330°N, 17.2000°E)
Time: 10:45:07
(UTC+02:00)

ISS - Visible Passes

Search period start: 23 May 2019 00:00
Search period end: 02 June 2019 00:00
Orbit: 407 x 410 km, 51.6° (Epoch: 23 May)

Date Brightness Start Highest point End Pass type
(mag) Time Alt. Az. Time Alt. Az. Time Alt. Az.
23 May -3.9 00:20:37 10° WNW 00:23:56 85° NNE 00:24:38 52° E visible
23 May -3.7 21:52:58 10° W 21:56:16 80° NNW 21:59:35 10° ENE visible
23 May -3.6 23:29:40 10° WNW 23:32:59 72° N 23:35:07 20° E visible
24 May -2.1 01:06:19 10° W 01:07:49 23° W 01:07:49 23° W visible
24 May -3.5 22:38:42 10° W 22:42:00 66° N 22:45:18 10° E visible
25 May -3.8 00:15:20 10° WNW 00:18:24 62° SW 00:18:24 62° SW visible
25 May -3.4 21:47:42 10° W 21:51:00 67° N 21:54:18 10° E visible
25 May -3.9 23:24:22 10° WNW 23:27:41 86° SSW 23:29:00 34° ESE visible
26 May -1.3 01:01:14 10° W 01:01:42 13° W 01:01:42 13° W visible
26 May -3.7 22:33:24 10° WNW 22:36:43 77° N 22:39:38 13° E visible
27 May -2.7 00:10:04 10° W 00:12:20 31° WSW 00:12:20 31° WSW visible
27 May -3.5 21:42:24 10° W 21:45:42 68° N 21:49:00 10° E visible
27 May -3.7 23:19:02 10° WNW 23:22:16 54° SSW 23:22:59 42° SSE visible
28 May -3.9 22:28:01 10° WNW 22:31:19 75° SSW 22:33:39 18° ESE visible
29 May -1.7 00:05:02 10° W 00:06:23 17° WSW 00:06:23 17° WSW visible
29 May -3.8 21:37:01 10° WNW 21:40:20 85° NNE 21:43:38 10° ESE visible
29 May -2.8 23:13:45 10° W 23:16:41 30° SSW 23:17:04 29° SSW visible
30 May -3.3 22:22:38 10° W 22:25:48 44° SSW 22:27:47 19° SE visible
31 May -3.7 21:31:34 10° WNW 21:34:50 64° SSW 21:38:07 10° ESE visible
31 May -1.8 23:08:50 10° W 23:10:56 16° SW 23:11:14 16° SSW visible
01 Jun -2.3 22:17:22 10° W 22:20:06 24° SW 22:22:00 15° S visible
